Stations météo

Publicité
Cap Cepet, France (7661): Température de l'air & dewpoint: 17.01.2019 23:00:00 - 23.01.2019 23:00:00 (CET)Cap Cepet, France (7661): Vitesse du vent & gusts: 17.01.2019 23:00:00 - 23.01.2019 23:00:00 (CET)Cap Cepet, France (7661): Direction du vent: 17.01.2019 23:00:00 - 23.01.2019 23:00:00 (CET)Cap Cepet, France (7661): reduced air pressure: 17.01.2019 23:00:00 - 23.01.2019 23:00:00 (CET)Cap Cepet, France (7661): visibility: 17.01.2019 23:00:00 - 23.01.2019 23:00:00 (CET)Cap Cepet, France (7661): Quantités de précipitations: 17.01.2019 23:00:00 - 23.01.2019 23:00:00 (CET)
Date & Time tt [°C] td [°C] ff [km/h] ff [knt] fx [km/h] fx [knt] dd ppp [hPa] vv [km] rr [mm]
23.01.2019 23:00:00 4,1 -5,1 18 10 32 17 NNW 989,8 - 0,0
23.01.2019 22:00:00 3,9 -4,6 16 9 39 21 NW 989,8 - 0,0
23.01.2019 21:00:00 4,1 -2,1 23 12 40 21 NNW 989,5 - 0,0
23.01.2019 20:00:00 4,8 -0,2 27 15 38 21 NNW 989,3 - 0,0
23.01.2019 19:00:00 5,0 0,0 15 8 31 17 NNW 989,0 - 0,0
23.01.2019 18:00:00 5,5 0,5 23 12 34 18 NNW 988,7 - 0,0
23.01.2019 17:00:00 6,1 -0,4 15 8 36 19 NW 988,6 - 0,0
23.01.2019 16:00:00 7,8 0,5 27 14 36 19 NW 989,3 18 0,0
23.01.2019 15:00:00 8,4 1,8 24 13 48 26 NNW 989,8 - 0,0
23.01.2019 14:00:00 7,2 1,1 35 19 55 30 NW 990,9 - 0,0
23.01.2019 13:00:00 8,0 1,2 27 15 43 23 - 991,8 - 0,0
23.01.2019 12:00:00 7,8 0,3 4 2 - - - 993,2 - 0,0
23.01.2019 11:00:00 6,1 -0,4 0 0 0 0 N 994,3 - 0,0
23.01.2019 10:00:00 5,3 -2,1 0 0 0 0 N 994,4 - 0,0
23.01.2019 09:00:00 4,7 -2,2 0 0 0 0 N 994,7 - 0,0
23.01.2019 08:00:00 4,1 -1,9 0 0 0 0 N 995,5 - 0,0
23.01.2019 07:00:00 3,9 -1,7 0 0 0 0 N 996,1 - 0,0
23.01.2019 06:00:00 3,9 -2,1 0 0 0 0 N 996,4 - 0,0
23.01.2019 05:00:00 3,5 -2,9 0 0 0 0 N 996,6 - 0,0
23.01.2019 04:00:00 4,0 -2,6 0 0 0 0 N 997,0 - 0,0
23.01.2019 03:00:00 3,8 -2,4 0 0 0 0 N 997,9 - 0,0
23.01.2019 02:00:00 3,8 -3,0 0 0 0 0 N 998,1 - 0,0
23.01.2019 01:00:00 3,9 -2,7 0 0 0 0 N 999,0 - 0,0
23.01.2019 00:00:00 4,7 -2,9 0 0 0 0 N 1000,2 - -
22.01.2019 23:00:00 4,9 -3,6 0 0 0 0 N 1000,4 - 0,0
22.01.2019 22:00:00 4,6 -4,2 0 0 0 0 N 1001,3 - 0,0
22.01.2019 21:00:00 4,7 -2,9 0 0 0 0 N 1002,1 - 0,0
22.01.2019 20:00:00 5,2 -2,6 0 0 0 0 N 1001,9 - 0,0
22.01.2019 19:00:00 5,4 -1,1 0 0 0 0 N 1002,0 - 0,0
22.01.2019 18:00:00 - - - - - - - - - -
22.01.2019 17:00:00 7,2 1,7 0 0 0 0 N 1002,5 - 0,0
22.01.2019 16:00:00 - - - - - - - - - -
22.01.2019 15:00:00 - - - - - - - - - -
22.01.2019 14:00:00 - - - - - - - - - -
22.01.2019 13:00:00 - - - - - - - - - -
22.01.2019 12:00:00 - - - - - - - - - -
22.01.2019 11:00:00 - - - - - - - - - -
22.01.2019 10:00:00 - - - - - - - - - -
22.01.2019 09:00:00 - - - - - - - - - -
22.01.2019 08:00:00 - - - - - - - - - -
22.01.2019 07:00:00 3,4 0,1 9 5 16 8 ENE 1009,7 - 0,0
22.01.2019 06:00:00 3,9 1,1 9 5 14 8 ENE 1009,8 - 0,0
22.01.2019 05:00:00 4,4 2,3 3 2 12 7 NNE 1010,3 - 0,0
22.01.2019 04:00:00 4,4 0,9 4 2 12 7 ENE 1010,8 20 0,0
22.01.2019 03:00:00 4,6 2,3 6 3 11 6 NE 1011,7 - 0,0
22.01.2019 02:00:00 5,0 2,5 6 3 11 6 N 1012,3 - 0,0
22.01.2019 01:00:00 4,9 1,6 5 3 13 7 NNW 1012,9 - 0,0
22.01.2019 00:00:00 5,0 2,7 6 3 11 6 N 1013,2 - 0,0
21.01.2019 23:00:00 6,5 2,4 8 5 17 9 NE 1013,1 - 0,0
21.01.2019 22:00:00 6,5 2,9 8 4 20 11 NE 1013,3 - 0,0
21.01.2019 21:00:00 6,6 3,9 10 6 13 7 ENE 1013,3 - 0,0
21.01.2019 20:00:00 7,7 2,6 5 3 8 5 NNE 1013,4 - 0,0
21.01.2019 19:00:00 8,1 1,9 5 3 15 8 W 1013,3 20 0,0
21.01.2019 18:00:00 7,9 2,8 13 7 22 12 W 1013,3 - 0,0
21.01.2019 17:00:00 9,5 3,9 15 8 24 13 W 1013,4 - 0,0
21.01.2019 16:00:00 10,9 4,4 9 5 22 12 SW 1013,3 20 0,0
21.01.2019 15:00:00 11,9 4,1 8 4 18 10 SSW 1013,1 - 0,0
21.01.2019 14:00:00 12,2 4,2 6 3 14 8 SSW 1013,3 - 0,0
21.01.2019 13:00:00 11,8 4,0 3 2 14 7 S 1013,8 20 0,0
21.01.2019 12:00:00 9,9 3,0 8 4 14 8 NE 1014,4 - 0,0
21.01.2019 11:00:00 7,9 3,2 10 5 16 9 NE 1014,7 - 0,0
21.01.2019 10:00:00 6,4 2,3 10 6 21 11 ENE 1014,4 - 0,0
21.01.2019 09:00:00 4,8 1,6 14 8 21 11 E 1014,0 - 0,0
21.01.2019 08:00:00 4,5 2,0 11 6 19 10 ENE 1013,9 - 0,0
21.01.2019 07:00:00 5,1 2,9 13 7 16 9 ENE 1013,6 18 0,0
21.01.2019 06:00:00 6,0 2,5 5 3 16 8 ENE 1013,3 - 0,0
21.01.2019 05:00:00 5,4 3,4 8 5 13 7 ENE 1013,3 - 0,0
21.01.2019 04:00:00 6,5 4,2 6 3 12 7 N 1013,4 18 0,0
21.01.2019 03:00:00 6,8 3,8 7 4 13 7 NNE 1013,8 - 0,0
21.01.2019 02:00:00 6,4 4,2 11 6 17 9 NE 1013,8 - 0,0
21.01.2019 01:00:00 6,9 4,6 8 5 16 9 ENE 1013,9 - 0,0
21.01.2019 00:00:00 7,3 4,1 8 4 16 9 NE 1014,0 - 0,0
20.01.2019 23:00:00 7,9 3,2 11 6 21 12 NE 1013,7 - 0,0
20.01.2019 22:00:00 7,8 3,8 11 6 22 12 NE 1013,5 - 0,0
20.01.2019 21:00:00 7,8 3,8 15 8 25 14 NE 1013,5 - 0,0
20.01.2019 20:00:00 8,0 4,2 16 9 26 14 NE 1013,2 - 0,0
20.01.2019 19:00:00 8,1 4,1 16 9 27 15 NE 1012,7 - 0,0
20.01.2019 18:00:00 8,3 4,5 17 9 29 16 NE 1012,3 - 0,0
20.01.2019 17:00:00 8,8 4,8 15 8 25 14 NE 1012,1 - 0,0
20.01.2019 16:00:00 9,5 4,9 18 10 34 18 NE 1011,6 18 0,0
20.01.2019 15:00:00 10,6 5,4 18 10 29 16 NE 1011,5 - 0,0
20.01.2019 14:00:00 10,2 5,6 18 10 29 16 NE 1011,7 - 0,0
20.01.2019 13:00:00 9,5 5,5 20 11 31 17 NE 1012,2 15 0,0
20.01.2019 12:00:00 9,3 5,7 20 11 31 17 NE 1012,5 - 0,0
20.01.2019 11:00:00 8,1 5,2 19 10 29 16 NE 1012,7 - 0,0
20.01.2019 10:00:00 6,9 4,7 19 10 28 15 NE 1012,4 20 0,0
20.01.2019 09:00:00 5,6 4,1 21 12 35 19 NE 1012,0 - 0,2
20.01.2019 08:00:00 5,6 3,9 22 12 29 16 NE 1011,7 - 0,0
20.01.2019 07:00:00 5,4 4,0 18 10 29 15 NE 1011,6 20 0,0
20.01.2019 06:00:00 5,6 4,2 21 12 30 16 NE 1011,5 - 0,0
20.01.2019 05:00:00 6,0 4,2 16 9 27 15 NE 1011,8 - 0,0
20.01.2019 04:00:00 5,9 4,2 19 11 30 16 NE 1012,0 15 0,0
20.01.2019 03:00:00 6,0 4,5 19 10 30 16 NE 1012,3 - 0,0
20.01.2019 02:00:00 5,7 4,0 20 11 29 16 NE 1012,4 - 0,0
20.01.2019 01:00:00 6,1 4,1 17 9 27 15 NE 1012,7 - 0,0
20.01.2019 00:00:00 6,5 4,3 16 9 27 15 NE 1012,9 - 0,0
19.01.2019 23:00:00 6,5 4,3 16 9 29 16 NE 1012,8 - 0,0
19.01.2019 22:00:00 5,8 3,8 19 10 33 18 NE 1012,9 - 0,0
19.01.2019 21:00:00 6,0 3,7 24 13 36 19 NE 1012,8 - 0,0
19.01.2019 20:00:00 6,0 3,7 25 14 40 22 NE 1013,0 - 0,0
19.01.2019 19:00:00 6,7 3,8 25 13 38 21 NE 1012,5 20 0,0
19.01.2019 18:00:00 8,9 4,1 21 11 34 18 NE 1012,2 - 0,0
19.01.2019 17:00:00 9,0 1,9 14 8 24 13 E 1012,2 - 0,0
19.01.2019 16:00:00 10,8 2,6 11 6 24 13 E 1012,3 - 0,0
19.01.2019 15:00:00 11,4 3,4 13 7 26 14 E 1012,4 - 0,0
19.01.2019 14:00:00 11,7 3,5 15 8 27 15 E 1012,7 - 0,0
19.01.2019 13:00:00 11,6 3,4 14 7 28 15 E 1013,5 - 0,0
19.01.2019 12:00:00 10,3 2,9 16 8 27 14 NE 1013,9 - 0,0
19.01.2019 11:00:00 9,1 4,1 17 9 27 15 NE 1014,2 - 0,0
19.01.2019 10:00:00 5,6 2,6 16 8 23 12 ENE 1014,0 25 0,0
19.01.2019 09:00:00 4,9 2,3 15 8 29 15 ENE 1013,5 - 0,0
19.01.2019 08:00:00 4,4 1,4 15 8 26 14 ENE 1013,4 - 0,0
19.01.2019 07:00:00 4,1 1,3 17 9 26 14 NE 1013,1 - 0,0
19.01.2019 06:00:00 4,4 1,2 13 7 23 13 ENE 1013,1 - 0,0
19.01.2019 05:00:00 4,2 1,1 13 7 20 11 NE 1013,1 - 0,0
19.01.2019 04:00:00 4,5 0,1 13 7 18 10 ENE 1013,5 20 0,0
19.01.2019 03:00:00 5,1 0,5 10 5 16 9 ENE 1013,7 - 0,0
19.01.2019 02:00:00 5,8 2,6 5 3 8 4 NNE 1013,7 - 0,0
19.01.2019 01:00:00 6,0 1,1 2 1 9 5 NE 1014,1 - 0,0
19.01.2019 00:00:00 5,5 1,0 2 1 11 6 S 1014,2 - 0,0
18.01.2019 23:00:00 6,0 0,5 9 5 13 7 ENE 1013,9 - 0,0
18.01.2019 22:00:00 5,4 -0,4 0 0 12 7 N 1013,6 - 0,0
18.01.2019 21:00:00 5,2 -0,4 10 6 27 15 WNW 1013,4 - 0,0
18.01.2019 20:00:00 5,7 -1,5 19 10 28 15 W 1013,4 - 0,0
18.01.2019 19:00:00 6,2 -1,5 19 11 32 17 W 1013,1 - 0,0
18.01.2019 18:00:00 6,4 -1,3 23 12 36 19 W 1012,7 - 0,0
18.01.2019 17:00:00 7,1 -0,9 24 13 44 24 W 1012,5 - 0,0
18.01.2019 16:00:00 8,0 -0,5 27 15 49 27 W 1012,4 25 0,0
18.01.2019 15:00:00 8,0 -1,0 32 17 50 27 WNW 1012,2 - 0,0
18.01.2019 14:00:00 9,5 -1,3 29 15 51 27 WNW 1012,0 - 0,0
18.01.2019 13:00:00 9,0 -2,9 31 17 51 28 W 1012,3 - 0,0
18.01.2019 12:00:00 9,2 -2,4 29 15 53 29 WNW 1012,8 - 0,0
18.01.2019 11:00:00 8,6 -2,7 32 17 62 33 WNW 1012,7 - 0,0
18.01.2019 10:00:00 7,4 -1,8 32 18 61 33 W 1012,8 25 0,0
18.01.2019 09:00:00 6,2 -2,7 24 13 44 24 WNW 1012,9 - 0,0
18.01.2019 08:00:00 6,0 -2,6 28 15 58 31 W 1012,4 - 0,0
18.01.2019 07:00:00 5,9 -2,5 28 15 48 26 WNW 1012,1 20 0,0
18.01.2019 06:00:00 5,8 -2,6 23 12 44 24 WNW 1012,2 - 0,0
18.01.2019 05:00:00 6,1 -2,5 21 11 35 19 WNW 1012,1 - 0,0
18.01.2019 04:00:00 6,6 -3,4 23 12 42 23 W 1012,3 - 0,0
18.01.2019 03:00:00 6,7 -2,0 28 15 46 25 W 1012,4 - 0,0
18.01.2019 02:00:00 7,1 -0,9 28 15 53 29 W 1013,0 - 0,0
18.01.2019 01:00:00 7,9 0,1 29 15 50 27 WNW 1013,3 - 0,0
18.01.2019 00:00:00 8,4 1,1 31 17 47 26 W 1013,5 - 0,0
17.01.2019 23:00:00 8,9 2,0 31 17 48 26 WNW 1013,2 - 0,0

tt = Température de l'air
td = dewpoint
ff = Vitesse du vent
fx = gusts
dd = Direction du vent
ppp = reduced air pressure
vv = visibility
rr = Quantités de précipitations

stations d'obs. à proximité